Weather in Vaasa

Finland     63°05′53″N   21°37′31″E
temp.,
°C
wind,
m/s
gust,
m/s
humid.,
%
clouds,
%
prec.,
mm/h
press.,
hPa
HPBL,
m
11 may, tue
tue1100:00+8s2693100 0.2 1011317
03:00+8s2990100 0.3 1011359
06:00+9s31188100 0.0 1011341
09:00+14ssw4874100 0.0 1012388
12:00+17ssw595957 0.0 1012615
15:00+19sw5855100 0.0 1014874
18:00+17sw4661100 0.0 1014568
21:00+13ssw2674100 0.0 1015246
12 may, wed
wed1200:00+9sse228952 0.0 101628
03:00+8se119543 0.0 101610
06:00+9se239697 0.0 101688
09:00+16s357048 0.0 1016433
12:00+21s355967 0.1 10161480
15:00+20wnw255535 0.1 10161134
18:00+19wnw24532 0.0 1015635
21:00+15ne11714 0.0 101544
13 may, thu
thu1300:00+13sse312775 0.0 1014302
03:00+13sse3108399 0.0 1014265
06:00+13sse3118168 0.0 1014327
09:00+19s476353 0.0 1013559
12:00+23s474675 0.0 10122117
15:00+20wnw345489 0.0 1012471
18:00+15n1274100 0.0 1012111
21:00+15ne2477100 0.0 1011130
14 may, fri
fri1400:00+14e2292100 1.1 101136
03:00+13sse11937 1.2 101016
06:00+11se228919 0.0 101043
09:00+16ne11677 0.0 1010336
12:00+16n436021 0.0 1010876
15:00+13n576810 0.0 1010312
18:00+10nne4677100 0.0 1011391
21:00+7nne498769 0.3 1011300
15 may, sat
sat1500:00+5nne3892100 0.0 1011242
03:00+4nne379696 0.0 1011218
06:00+4nne3594100 0.0 1011182
09:00+7nne358577 0.0 1010239
12:00+10nne3577100 0.0 1010248
15:00+10n4676100 0.1 1009225
18:00+8nne488494 0.0 1008222
21:00+6nne41195100 0.1 1007231